Location: *
(48.7358°N, 0.3111°E)
Time: 00:28:49
(UTC+00:00)

Cosmos 1437 Rocket - Pass Details

Date: 22 October 2019
Orbit: 507 x 562 km, 81.2° (Epoch: 21 November)

Event Time Altitude Azimuth Distance (km) Brightness Sun altitude
Rises 05:49:51 0° 223° (SW) 2,606 5.9 -7.1°
Reaches altitude 10° 05:52:19 10° 239° (WSW) 1,724 4.9 -6.7°
Maximum altitude 05:55:19 22° 292° (WNW) 1,147 3.9 -6.3°
Drops below altitude 10° 05:58:21 10° 345° (NNW) 1,738 5.1 -5.8°
Sets 06:00:52 0° 1° (N) 2,634 6.2 -5.4°
